Date_and_time,latitude,longitude,wind_speed,RelWindDirFrom,WindDirFrom,air_pressure,air_temperature,relative_humidity,Temp,platform_speed_wrt_ground,air_pressure_at_mean_sea_level,platform_orientation
2019-02-07 00:00,50.6304433333333,-96.980765,12.5,18.4,330,1001.95,-20.4,61,0.33,0.0,1032.42,194.5
2019-02-07 00:00,50.6304433333333,-96.980765,14.1,14.6,327,1002.01,-20.5,61,0.32,0.0,1032.51,360.0
2019-02-07 00:10,50.630445,-96.9807666666667,12.9,20.4,329,1002.16,-20.6,61,0.33,0.0,1032.68,360.0
2019-02-07 00:20,50.630445,-96.9807666666667,13.7,19.0,339,1002.00,-20.8,62,0.33,0.0,1032.53,360.0
2019-02-07 00:30,50.630445,-96.9807666666667,14.3,19.2,344,1001.82,-21.0,64,0.33,0.0,1032.37,360.0
2019-02-07 00:40,50.6304466666667,-96.9807666666667,14.8,20.5,346,1001.77,-21.0,65,0.32,0.0,1032.33,360.0
2019-02-07 00:50,50.6304466666667,-96.9807666666667,13.9,18.8,342,1001.81,-21.1,65,0.32,0.0,1032.37,360.0
2019-02-07 01:00,50.6304683333333,-96.9807733333333,12.7,16.5,338,1001.99,-21.2,65,0.32,0.0,1032.57,360.0
2019-02-07 01:10,50.6304533333333,-96.9807666666667,12.5,17.7,337,1002.09,-21.3,66,0.32,0.0,1032.69,360.0
2019-02-07 01:20,50.63045,-96.9807666666667,12.5,17.6,334,1002.13,-21.5,66,0.32,0.0,1032.75,360.0
2019-02-07 01:30,50.63045,-96.9807666666667,12.6,18.2,333,1002.30,-21.6,66,0.32,0.0,1032.95,360.0
2019-02-07 01:40,50.6304516666667,-96.9807683333333,14.6,21.6,335,1002.14,-21.8,66,0.32,0.0,1032.81,360.0
2019-02-07 01:50,50.6304516666667,-96.98077,13.5,17.3,333,1002.27,-22.0,66,0.32,0.0,1032.96,360.0
2019-02-07 02:00,50.6304533333333,-96.98077,12.4,18.5,335,1002.46,-22.2,67,0.32,0.0,1033.17,360.0
2019-02-07 02:10,50.630455,-96.9807716666667,12.6,18.7,337,1002.50,-22.3,67,0.32,0.0,1033.23,360.0
2019-02-07 02:20,50.630455,-96.9807716666667,12.1,16.6,346,1002.31,-22.3,68,0.32,0.0,1033.04,360.0
2019-02-07 02:30,50.630455,-96.98077,13.1,17.8,338,1002.25,-22.4,68,0.32,0.0,1033.00,360.0
2019-02-07 02:40,50.630455,-96.98077,14.0,18.6,337,1002.35,-22.6,68,0.32,0.0,1033.12,360.0
2019-02-07 02:50,50.6304566666667,-96.98077,11.9,15.7,337,1002.51,-22.5,68,0.32,0.0,1033.28,360.0
2019-02-07 03:00,50.6304566666667,-96.98077,11.0,15.9,329,1002.58,-22.5,68,0.32,0.0,1033.36,360.0
2019-02-07 03:10,50.63046,-96.9807683333333,10.3,15.7,324,1002.76,-22.6,68,0.32,0.0,1033.56,360.0
2019-02-07 03:20,50.63045,-96.9807483333333,10.1,14.4,324,1002.76,-22.7,68,0.32,0.0,1033.58,360.0
2019-02-07 03:30,50.6304516666667,-96.9807666666667,10.7,16.6,328,1002.58,-22.8,68,0.32,0.0,1033.41,360.0
2019-02-07 03:40,50.63045,-96.98076,10.7,14.8,330,1002.53,-22.9,68,0.31,0.0,1033.38,360.0
2019-02-07 03:50,50.630455,-96.9807633333333,11.2,15.8,327,1002.66,-22.9,68,0.31,0.0,1033.51,360.0
2019-02-07 04:00,50.6304516666667,-96.98076,10.3,14.4,327,1002.77,-22.8,68,0.31,0.0,1033.64,147.5
2019-02-07 04:10,50.6304516666667,-96.9807633333333,11.1,15.3,331,1002.58,-22.8,68,0.31,0.0,1033.44,147.5
2019-02-07 04:20,50.63045,-96.9807633333333,10.7,15.5,333,1002.72,-22.9,68,0.31,0.0,1033.60,147.5
2019-02-07 04:30,50.63045,-96.9807633333333,10.2,14.1,331,1002.83,-23.1,68,0.31,0.0,1033.73,147.5
2019-02-07 04:40,50.63045,-96.980765,10.9,16.2,328,1003.07,-23.2,67,0.31,0.0,1033.98,147.5
2019-02-07 04:50,50.6304516666667,-96.980765,12.4,16.5,337,1002.84,-23.3,68,0.31,0.0,1033.75,147.5
2019-02-07 05:00,50.6304516666667,-96.9807683333333,11.0,15.2,334,1002.91,-23.2,68,0.31,0.0,1033.82,90.0
2019-02-07 05:10,50.63046,-96.9807666666667,9.5,13.9,326,1003.08,-23.1,68,0.31,0.0,1034.00,90.0
2019-02-07 05:20,50.630455,-96.9807616666667,10.1,15.2,323,1003.10,-23.3,68,0.31,0.0,1034.04,90.0
2019-02-07 05:30,50.630455,-96.9807583333333,10.3,15.2,325,1003.20,-23.4,68,0.31,0.0,1034.15,90.0
2019-02-07 05:40,50.630455,-96.9807583333333,9.5,13.4,325,1003.25,-23.3,68,0.31,0.0,1034.19,90.0
2019-02-07 05:50,50.630435,-96.9807783333333,10.1,15.4,332,1003.25,-23.2,68,0.31,0.0,1034.19,90.0
2019-02-07 06:00,50.6304583333333,-96.9807733333333,9.7,15.2,330,1003.34,-23.0,68,0.31,0.0,1034.27,347.4
2019-02-07 06:10,50.6304816666667,-96.9807933333333,10.1,14.1,334,1003.31,-23.0,68,0.30,0.0,1034.24,347.4
2019-02-07 06:20,50.6304583333333,-96.9807816666667,9.7,12.9,332,1003.41,-22.9,68,0.30,0.0,1034.35,347.4
2019-02-07 06:30,50.6304583333333,-96.9807783333333,8.8,12.4,333,1003.69,-22.9,68,0.30,0.0,1034.65,347.4
2019-02-07 06:40,50.6304583333333,-96.9807766666667,9.8,14.6,328,1003.63,-22.9,68,0.30,0.0,1034.59,347.4
2019-02-07 06:50,50.63046,-96.9807883333333,10.3,14.6,332,1003.62,-23.0,68,0.30,0.0,1034.57,347.4
2019-02-07 07:00,50.6304583333333,-96.98078,9.7,13.8,334,1003.65,-23.0,68,0.30,0.0,1034.61,286.8
2019-02-07 07:10,50.6304433333333,-96.9807733333333,10.0,13.1,331,1003.57,-23.0,68,0.30,0.0,1034.53,286.8
2019-02-07 07:20,50.6304366666667,-96.980775,10.3,14.4,331,1003.50,-23.0,68,0.30,0.0,1034.46,286.8
2019-02-07 07:30,50.6304566666667,-96.9807816666667,10.5,14.4,328,1003.42,-23.1,68,0.30,0.0,1034.39,286.8
2019-02-07 07:40,50.63046,-96.9807833333333,12.0,16.8,331,1003.35,-23.1,68,0.30,0.0,1034.31,286.8
2019-02-07 07:50,50.6304366666667,-96.9807566666667,10.9,15.7,334,1003.37,-23.1,68,0.30,0.0,1034.31,286.8
2019-02-07 08:00,50.6304416666667,-96.98076,10.2,13.8,329,1003.39,-23.1,68,0.30,0.0,1034.34,360.0
2019-02-07 08:10,50.630445,-96.9807633333333,10.9,15.4,331,1003.41,-23.2,68,0.30,0.0,1034.36,360.0
2019-02-07 08:20,50.6304466666667,-96.9807683333333,11.1,14.8,332,1003.29,-23.3,68,0.30,0.0,1034.24,360.0
2019-02-07 08:30,50.6304466666667,-96.98077,10.8,15.4,330,1003.13,-23.5,68,0.30,0.0,1034.09,360.0
2019-02-07 08:40,50.6304533333333,-96.9807766666667,10.8,15.7,333,1003.18,-23.7,69,0.30,0.0,1034.16,360.0
2019-02-07 08:50,50.6304316666667,-96.980775,10.7,15.2,333,1003.35,-23.8,69,0.30,0.0,1034.34,360.0
2019-02-07 09:00,50.6304416666667,-96.98078,11.1,14.9,332,1003.30,-24.0,69,0.30,0.0,1034.30,183.2
2019-02-07 09:10,50.6304483333333,-96.9807683333333,9.8,13.8,334,1003.28,-24.1,69,0.30,0.0,1034.28,183.2
2019-02-07 09:20,50.63045,-96.9807683333333,9.8,13.2,332,1003.17,-24.1,69,0.30,0.0,1034.17,183.2
2019-02-07 09:30,50.6304483333333,-96.9807666666667,9.6,14.0,336,1003.25,-24.1,69,0.30,0.0,1034.26,183.2
2019-02-07 09:40,50.6304483333333,-96.9807666666667,10.0,13.5,337,1003.20,-24.2,70,0.30,0.0,1034.21,183.2
2019-02-07 09:50,50.6304483333333,-96.9807666666667,10.9,15.1,339,1003.03,-24.2,70,0.30,0.0,1034.04,183.2
2019-02-07 10:00,50.6304633333333,-96.98077,11.3,15.4,336,1002.81,-24.2,70,0.30,0.0,1033.82,66.4
2019-02-07 10:10,50.6304483333333,-96.98077,11.0,15.7,335,1002.70,-24.2,70,0.30,0.0,1033.72,66.4
2019-02-07 10:20,50.6304133333333,-96.98076,11.2,15.7,335,1002.59,-24.2,70,0.30,0.0,1033.62,66.4
2019-02-07 10:30,50.6304716666667,-96.980765,11.1,15.1,336,1002.52,-24.3,70,0.29,0.0,1033.56,66.4
2019-02-07 10:40,50.6304583333333,-96.98077,11.4,15.6,336,1002.45,-24.4,70,0.29,0.0,1033.50,66.4
2019-02-07 10:50,50.6304533333333,-96.9807733333333,11.2,15.2,338,1002.38,-24.3,70,0.29,0.0,1033.44,66.4
2019-02-07 11:00,50.6304516666667,-96.9807733333333,10.5,15.2,337,1002.32,-24.3,70,0.29,0.0,1033.38,347.4
2019-02-07 11:10,50.6304516666667,-96.9807733333333,10.5,15.1,333,1002.24,-24.3,70,0.29,0.0,1033.30,347.4
2019-02-07 11:20,50.63045,-96.9807733333333,9.7,13.5,334,1002.26,-24.3,70,0.29,0.0,1033.32,347.4
2019-02-07 11:30,50.6304466666667,-96.9807616666667,10.2,16.1,334,1002.25,-24.4,70,0.29,0.0,1033.32,347.4
2019-02-07 11:40,50.6304516666667,-96.9807616666667,10.8,15.0,333,1002.24,-24.3,70,0.29,0.0,1033.30,347.4
2019-02-07 11:50,50.6304666666667,-96.980775,10.0,13.9,334,1002.17,-24.4,70,0.29,0.0,1033.23,347.4
2019-02-07 12:00,50.6304583333333,-96.9807716666667,9.6,12.9,338,1002.22,-24.5,70,0.29,0.0,1033.29,3.2
2019-02-07 12:10,50.6304533333333,-96.9807766666667,9.5,13.6,330,1002.13,-24.5,70,0.29,0.0,1033.20,3.2
2019-02-07 12:20,50.63045,-96.9807766666667,10.6,14.5,333,1002.08,-24.6,70,0.29,0.0,1033.17,3.2
2019-02-07 12:30,50.630445,-96.98076,11.2,15.0,338,1002.08,-24.7,70,0.29,0.0,1033.17,3.2
2019-02-07 12:40,50.6304483333333,-96.9807616666667,10.6,14.8,338,1002.08,-24.8,70,0.29,0.0,1033.18,3.2
2019-02-07 12:50,50.6304483333333,-96.980765,10.6,15.0,334,1002.02,-25.0,70,0.29,0.0,1033.13,3.2
2019-02-07 13:00,50.630475,-96.9807933333333,11.0,15.4,340,1002.13,-25.2,70,0.29,0.0,1033.26,294.9
2019-02-07 13:10,50.63046,-96.9807733333333,10.6,14.5,340,1002.20,-25.3,70,0.29,0.0,1033.34,294.9
2019-02-07 13:20,50.6304566666667,-96.9807766666667,11.4,16.9,338,1002.15,-25.5,70,0.29,0.0,1033.29,294.9
2019-02-07 13:30,50.6304533333333,-96.98077,11.3,14.9,334,1002.03,-25.6,70,0.28,0.0,1033.18,294.9
2019-02-07 13:40,50.6304566666667,-96.9807666666667,11.0,15.4,335,1002.01,-25.8,70,0.28,0.0,1033.17,294.9
2019-02-07 13:50,50.6304533333333,-96.98077,10.3,13.4,333,1001.96,-26.0,70,0.28,0.0,1033.14,294.9
2019-02-07 14:00,50.630455,-96.9807666666667,10.2,14.2,329,1001.88,-26.2,70,0.28,0.0,1033.07,90.0
2019-02-07 14:10,50.6304516666667,-96.9807666666667,9.4,13.9,328,1001.97,-26.3,70,0.28,0.0,1033.17,90.0
2019-02-07 14:20,50.6304166666667,-96.9807183333333,9.1,12.2,328,1002.18,-26.3,70,0.28,0.0,1033.40,90.0
2019-02-07 14:30,50.6304366666667,-96.9807416666667,9.0,12.6,331,1002.36,-26.4,70,0.28,0.0,1033.59,90.0
2019-02-07 14:40,50.6304366666667,-96.9807516666667,8.6,13.3,327,1002.32,-26.4,70,0.28,0.0,1033.57,90.0
2019-02-07 14:50,50.6304383333333,-96.9807583333333,8.3,12.4,328,1002.37,-26.4,69,0.28,0.0,1033.64,90.0
2019-02-07 15:00,50.63044,-96.9807616666667,9.7,14.1,327,1002.24,-26.5,69,0.28,0.0,1033.51,147.5
2019-02-07 15:10,50.63044,-96.9807616666667,11.2,15.7,327,1002.03,-26.4,69,0.28,0.0,1033.30,147.5
2019-02-07 15:20,50.63044,-96.9807633333333,10.9,15.8,326,1002.05,-26.3,68,0.28,0.0,1033.32,147.5
2019-02-07 15:30,50.6304416666667,-96.9807633333333,10.1,14.7,331,1002.19,-25.9,68,0.27,0.0,1033.46,147.5
2019-02-07 15:40,50.630465,-96.980775,11.8,18.0,329,1002.05,-25.6,68,0.27,0.0,1033.30,147.5
2019-02-07 15:50,50.6304466666667,-96.98076,11.5,15.5,331,1002.06,-25.4,68,0.27,0.0,1033.31,147.5
2019-02-07 16:00,50.6304516666667,-96.980765,12.3,16.3,335,1002.00,-25.2,68,0.27,0.0,1033.24,131.9
2019-02-07 16:10,50.63045,-96.9807633333333,11.6,16.1,336,1002.08,-25.0,67,0.27,0.0,1033.32,131.9
2019-02-07 16:20,50.6304483333333,-96.9807633333333,10.1,13.1,334,1002.21,-24.7,67,0.27,0.0,1033.43,131.9
2019-02-07 16:30,50.6304483333333,-96.980765,9.2,13.5,338,1002.28,-24.5,66,0.27,0.0,1033.50,131.9
2019-02-07 16:40,50.6304483333333,-96.980765,9.8,15.5,339,1002.17,-24.3,66,0.27,0.0,1033.37,131.9
2019-02-07 16:50,50.6304483333333,-96.9807666666667,10.9,14.9,343,1002.18,-24.0,66,0.27,0.0,1033.36,131.9
2019-02-07 17:00,50.63045,-96.98077,10.3,12.9,344,1002.21,-23.7,65,0.27,0.0,1033.38,90.0
2019-02-07 17:10,50.6304483333333,-96.98077,10.5,14.3,342,1002.09,-23.4,65,0.27,0.0,1033.23,90.0
2019-02-07 17:20,50.6304483333333,-96.98077,12.9,17.0,343,1001.88,-23.2,65,0.27,0.0,1032.97,90.0
2019-02-07 17:30,50.63045,-96.98077,12.1,16.3,338,1001.74,-22.9,64,0.27,0.0,1032.79,90.0
2019-02-07 17:40,50.6304483333333,-96.98077,10.6,15.9,328,1001.56,-22.8,63,0.27,0.0,1032.58,90.0
2019-02-07 17:50,50.6304483333333,-96.98077,10.4,15.1,325,1001.37,-22.9,63,0.27,0.0,1032.38,90.0
2019-02-07 18:00,50.6304483333333,-96.98077,10.1,14.1,327,1001.22,-23.0,63,0.27,0.0,1032.22,311.7
2019-02-07 18:10,50.6304633333333,-96.9807933333333,10.4,16.0,327,1001.05,-22.9,63,0.27,0.0,1032.01,311.7
2019-02-07 18:20,50.6304533333333,-96.9807816666667,11.1,16.9,326,1000.88,-22.8,63,0.27,0.0,1031.83,311.7
2019-02-07 18:30,50.63045,-96.980775,10.6,16.6,327,1000.78,-22.7,63,0.27,0.0,1031.70,311.7
2019-02-07 18:40,50.63045,-96.9807783333333,11.1,17.1,328,1000.66,-22.6,63,0.27,0.0,1031.55,311.7
2019-02-07 18:50,50.6304516666667,-96.9807766666667,11.5,17.9,325,1000.49,-22.6,63,0.27,0.0,1031.36,311.7
2019-02-07 19:00,50.63045,-96.980775,12.4,18.3,328,1000.29,-22.5,63,0.27,0.0,1031.12,270.0
2019-02-07 19:10,50.63045,-96.9807766666667,12.3,17.1,328,1000.14,-22.4,63,0.27,0.0,1030.95,270.0
2019-02-07 19:20,50.63045,-96.9807766666667,12.2,18.8,336,1000.12,-22.1,63,0.27,0.0,1030.90,270.0
2019-02-07 19:30,50.63045,-96.9807766666667,13.3,21.1,340,999.98,-22.0,64,0.27,0.0,1030.75,270.0
2019-02-07 19:40,50.6304833333333,-96.9807833333333,14.9,20.7,342,999.85,-22.2,64,0.28,0.0,1030.63,270.0
2019-02-07 19:50,50.630445,-96.9807566666667,14.5,20.8,346,999.81,-22.1,64,0.28,0.0,1030.58,270.0
2019-02-07 20:00,50.6304466666667,-96.9807616666667,14.4,20.9,343,999.69,-22.0,63,0.28,0.0,1030.45,167.4
2019-02-07 20:10,50.6304516666667,-96.9807683333333,14.4,20.5,338,999.57,-22.0,63,0.28,0.0,1030.32,167.4
2019-02-07 20:20,50.6304516666667,-96.980765,14.2,21.6,338,999.47,-22.0,62,0.28,0.0,1030.21,167.4
2019-02-07 20:30,50.6304466666667,-96.98077,12.1,18.0,329,999.36,-21.9,62,0.28,0.0,1030.08,167.4
2019-02-07 20:40,50.63045,-96.980765,14.7,21.5,331,999.16,-21.9,62,0.28,0.0,1029.88,167.4
2019-02-07 20:50,50.6304566666667,-96.9807616666667,13.9,22.4,327,999.00,-22.0,61,0.28,0.0,1029.71,167.4
2019-02-07 21:00,50.6304583333333,-96.980755,14.7,19.8,328,998.90,-22.0,61,0.28,0.0,1029.59,14.5
2019-02-07 21:10,50.6304533333333,-96.9807533333333,13.6,20.7,328,998.86,-21.9,62,0.28,0.0,1029.54,14.5
2019-02-07 21:20,50.630455,-96.9807583333333,14.7,20.9,326,998.72,-21.9,62,0.28,0.0,1029.39,14.5
2019-02-07 21:30,50.6304183333333,-96.9807466666667,13.9,20.0,330,998.81,-21.8,62,0.28,0.0,1029.49,14.5
2019-02-07 21:40,50.630445,-96.98076,14.0,19.5,325,998.74,-21.8,62,0.28,0.0,1029.41,14.5
2019-02-07 21:50,50.630475,-96.980785,14.0,21.0,330,998.77,-21.7,62,0.28,0.0,1029.43,14.5
2019-02-07 22:00,50.630465,-96.9807666666667,15.2,21.0,333,998.71,-21.6,62,0.28,0.0,1029.36,23.5
2019-02-07 22:10,50.6304633333333,-96.980765,14.6,21.3,332,998.72,-21.5,62,0.28,0.0,1029.36,23.5
2019-02-07 22:20,50.6304566666667,-96.9807683333333,15.4,22.2,337,998.77,-21.4,62,0.28,0.0,1029.40,23.5
2019-02-07 22:30,50.6304566666667,-96.9807666666667,13.3,24.4,334,998.90,-21.3,62,0.28,0.0,1029.53,23.5
2019-02-07 22:40,50.6304533333333,-96.98077,12.8,20.4,332,998.95,-21.4,62,0.29,0.0,1029.59,23.5
2019-02-07 22:50,50.6304533333333,-96.98077,8.9,13.7,321,999.09,-21.4,62,0.29,0.0,1029.73,23.5
2019-02-07 23:00,50.6304516666667,-96.9807666666667,10.1,14.3,317,999.01,-21.8,63,0.28,0.0,1029.67,347.4
2019-02-07 23:10,50.6304516666667,-96.9807683333333,9.2,12.3,315,999.01,-22.0,64,0.29,0.0,1029.69,347.4
2019-02-07 23:20,50.63045,-96.9807666666667,9.8,15.2,319,998.93,-22.1,64,0.29,0.0,1029.60,347.4
2019-02-07 23:30,50.6304516666667,-96.9807666666667,9.6,13.5,318,998.93,-22.1,64,0.29,0.0,1029.60,347.4
